This demonstration page uses our WeatherBlox Daily Observations layout. Learn more.

Left ArrowRight Arrow

39.29038, -76.61219

Hourly Observations for February 12, 2017

Temp ( °F °C ) Dew Point ( °F °C ) Humidity (%) Winds ( mph kmh ) Pressure ( in mb ) Visibility ( mi km ) Precip ( " mm )
12:54 am 00:54 undefined 48 8.9 32 undefined 54 54 undefined N/A 30.00 1016 N/A N/A
1:54 am 01:54 undefined 48 8.9 31 -0.6 52 52 undefined N/A 30.01 1016 N/A N/A
2:54 am 02:54 undefined 48 8.9 32 undefined 54 54 undefined N/A 30.00 1016 N/A N/A
3:54 am 03:54 undefined 47 8.3 33 0.6 59 59 undefined N/A 29.98 1015 N/A N/A
4:54 am 04:54 undefined 47 8.3 31 -0.6 54 54 undefined N/A 30.00 1016 N/A N/A
5:54 am 05:54 undefined 46 7.8 32 undefined 58 58 undefined N/A 29.97 1015 N/A N/A
6:54 am 06:54 undefined 46 7.8 31 -0.6 56 56 undefined N/A 29.95 1014 N/A N/A
7:54 am 07:54 undefined 46 7.8 31 -0.6 56 56 undefined N/A 29.91 1013 N/A N/A
8:54 am 08:54 undefined 46 7.8 34 1.1 63 63 undefined N/A 29.89 1012 N/A N/A
9:54 am 09:54 undefined 44 6.7 39 3.9 83 83 undefined N/A 29.83 1010 N/A 0.06 1.52
10:54 am 10:54 undefined 45 7.2 40 4.4 83 83 undefined N/A 29.81 1009 N/A 0.05 1.27
11:54 am 11:54 undefined 45 7.2 41 5 86 86 undefined N/A 29.78 1009 N/A 0.13 3.30
12:54 pm 12:54 undefined 45 7.2 41 5 86 86 undefined N/A 29.75 1007 N/A 0.01 0.25
1:54 pm 13:54 undefined 46 7.8 42 5.6 86 86 undefined N/A 29.72 1007 N/A N/A
2:54 pm 14:54 undefined 46 7.8 42 5.6 86 86 undefined N/A 29.70 1006 N/A N/A
3:54 pm 15:54 undefined 47 8.3 42 5.6 83 83 undefined N/A 29.69 1006 N/A N/A
4:54 pm 16:54 undefined 47 8.3 42 5.6 83 83 undefined N/A 29.73 1007 N/A N/A
5:54 pm 17:54 undefined 47 8.3 42 5.6 83 83 undefined N/A 29.74 1007 N/A N/A
6:54 pm 18:54 undefined 48 8.9 40 4.4 74 74 undefined N/A 29.76 1008 N/A N/A
7:54 pm 19:54 undefined 48 8.9 40 4.4 74 74 undefined N/A 29.76 1008 N/A N/A
8:54 pm 20:54 undefined 45 7.2 39 3.9 80 80 undefined N/A 29.76 1008 N/A N/A
9:54 pm 21:54 undefined 47 8.3 38 3.3 71 71 undefined N/A 29.73 1007 N/A N/A
10:54 pm 22:54 undefined 50 10 34 1.1 54 54 undefined N/A 29.72 1006 N/A N/A
11:54 pm 23:54 undefined 46 7.8 28 -2.2 50 50 undefined N/A 29.78 1009 N/A N/A

Powered by AerisWeather